Location: Augirein
(42.9320°N, 0.9181°E)
Time: 15:04:37
(UTC+00:00)

Cosmos 2150 Rocket - Pass Details

Date: 20 June 2021
Orbit: 749 x 808 km, 74.0° (Epoch: 31 July)

Event Time Altitude Azimuth Distance (km) Brightness Sun altitude
Rises 02:38:52 0° 336° (NNW) 3,219 7.6 -14.0°
Reaches altitude 10° 02:41:15 10° 333° (NNW) 2,296 6.8 -13.7°
Maximum altitude 02:46:22 62° 254° (WSW) 862 4.0 -13.1°
Drops below altitude 10° 02:51:32 10° 175° (S) 2,315 6.1 -12.5°
Enters shadow 02:52:42 - 173° (S) 2,763 6.5 -12.4°
